Temp
64 57 52 56 60 61 57 54 52 56 63 59 55 55 58 58 58 56 56 55 56 59 61 63 64 63 62 62 60 59 61 59 58 56 54 53 54 54 56 57 60 59 59 60
58 51 62 66 64 61 58 53 53 57 62 57 56 56 59 59 59 59 57 55 56 57 57 59 63 63 64 62 60 58 60 60 58 57 56 54 53 54 54 55 57 58 59 60
55 60 68 66 61 59 56 52 53 53 57 58 53 50 54 55 56 59 58 58 58 58 57 57 57 60 60 61 59 60 60 60 59 58 56 55 54 53 52 53 54 56 58 58
57 64 63 59 59 60 51 58 58 57 50 42 53 38 48 50 51 55 56 55 57 57 57 58 57 57 57 58 59 59 59 59 61 58 55 52 50 49 50 50 52 54 56 57
55 58 57 56 58 61 54 58 55 53 46 42 45 40 44 50 47 51 53 55 56 57 59 60 60 60 60 59 57 58 58 59 58 57 55 51 50 49 50 50 51 51 53 54
57 63 60 57 62 61 61 54 52 49 44 34 44 44 43 46 51 51 52 55 58 57 59 59 59 60 59 58 58 58 58 58 57 56 55 53 50 50 48 48 48 48 49 50
54 55 58 62 54 57 54 45 35 35 33 35 50 45 46 52 54 55 55 54 56 57 57 57 57 57 57 57 58 59 58 56 56 55 54 53 51 49 48 48 47 47 47 48
45 43 53 59 53 49 50 46 36 33 33 38 49 41 46 51 55 57 57 56 56 56 55 56 57 56 57 59 58 57 55 55 55 54 53 52 51 48 48 48 48 47 47 48
44 44 55 58 57 54 48 43 48 41 39 35 41 43 49 53 53 55 54 54 53 55 55 57 57 57 56 56 56 56 55 55 54 53 51 50 49 49 48 48 48 47 48 53
46 41 53 55 55 54 48 51 41 39 32 30 38 38 42 46 48 51 52 52 54 56 56 56 57 57 56 55 56 55 54 53 53 52 50 51 48 49 48 48 47 47 48 50
47 44 44 49 46 46 46 43 44 42 38 31 29 37 49 48 49 50 48 53 55 55 56 55 55 55 56 55 54 53 53 52 51 50 49 48 47 48 48 47 47 49 49 47
46 42 38 44 49 52 48 45 45 35 36 35 29 34 50 51 53 54 53 55 53 55 55 55 54 54 53 52 51 51 51 49 49 49 48 47 47 46 45 45 48 46 48 48
46 40 34 38 44 47 44 48 48 43 35 33 27 36 53 51 51 52 50 53 53 54 54 53 53 51 50 49 50 49 49 48 48 48 46 45 44 44 46 43 46 48 48 48
50 41 39 34 38 43 41 47 48 44 26 32 35 39 48 48 48 50 49 49 49 52 55 52 50 48 48 48 48 48 47 47 47 47 45 43 43 44 42 46 46 47 47 47
45 39 41 44 47 47 46 46 46 43 41 34 40 43 47 48 46 47 49 51 51 52 54 52 49 47 46 46 46 46 45 46 46 44 43 43 43 45 46 45 46 47 49 49
45 38 40 39 47 46 43 45 45 44 45 43 44 42 48 48 47 49 48 50 51 51 51 50 49 48 47 45 44 44 44 44 43 42 44 43 44 45 44 45 45 47 47 47
42 37 32 29 40 41 35 43 45 45 46 44 37 44 48 47 49 48 49 50 49 49 48 47 47 46 45 44 45 43 42 42 41 42 43 43 44 44 44 46 46 45 45 45
41 39 34 24 33 24 41 48 49 46 47 46 46 46 47 46 47 48 46 45 45 47 47 45 44 44 44 44 44 43 43 41 41 40 41 42 43 43 44 45 44 44 44 42
43 37 29 24 22 35 42 44 44 41 40 46 43 46 47 48 45 45 50 50 48 45 45 44 44 44 43 43 43 42 41 40 39 40 40 42 43 43 43 42 42 42 41 41
43 38 31 27 20 20 39 45 49 46 29 46 46 45 45 44 36 38 49 50 49 47 46 45 44 44 42 42 42 41 39 38 37 40 42 43 45 43 42 42 41 42 42 41
31 29 25 23 20 30 43 47 48 31 33 47 47 45 44 39 41 46 49 49 47 46 45 44 43 41 41 42 42 39 37 37 40 42 43 44 45 43 43 42 42 42 41 41
32 25 25 26 22 24 48 44 38 42 44 46 45 45 45 45 46 47 48 47 45 43 44 44 41 40 42 42 40 36 35 40 42 42 43 43 43 44 44 42 42 41 40 39
33 39 32 34 33 45 47 46 47 47 46 46 45 46 46 45 45 46 45 44 44 43 43 44 41 40 41 40 39 35 39 40 41 41 42 42 43 43 43 41 39 38 39 38
42 44 34 37 42 44 46 48 48 46 45 47 47 46 46 44 45 44 44 43 42 42 42 42 40 38 38 39 39 38 39 40 40 41 41 42 41 41 41 39 39 38 38 38
42 41 39 38 41 44 45 45 45 46 47 47 47 46 45 45 44 44 43 42 42 41 41 41 38 37 37 38 38 38 38 39 39 40 41 41 40 39 38 38 38 39 41 43
45 41 35 34 42 40 40 45 46 46 45 46 45 44 46 45 44 43 41 41 40 39 40 38 38 37 37 37 37 37 39 39 38 39 39 39 38 38 38 37 37 42 47 48
MSLP
1012.16 1012.88 1013.09 1013.09 1013.15 1013.17 1013.41 1013.71 1013.90 1013.54 1013.44 1014.14 1014.72 1015.08 1015.34 1015.76 1016.34 1016.96 1017.47 1017.90 1018.15 1018.27 1018.39 1018.51 1018.62 1018.91 1018.99 1019.31 1019.38 1019.54 1019.64 1019.75 1019.74 1019.84 1019.97 1019.96 1020.04 1019.70 1019.58 1019.27 1018.96 1018.82 1018.62 1018.35
1012.90 1013.04 1012.76 1012.68 1012.83 1013.06 1013.32 1013.69 1013.91 1014.03 1014.07 1014.76 1014.95 1014.76 1014.47 1014.96 1015.24 1015.79 1016.67 1017.35 1017.77 1018.17 1018.55 1018.57 1018.65 1018.67 1018.91 1019.19 1019.41 1019.49 1019.40 1019.47 1019.58 1019.58 1019.72 1019.87 1019.91 1019.77 1019.56 1019.25 1019.02 1018.79 1018.53 1018.20
1012.81 1012.88 1012.59 1012.67 1012.91 1013.19 1013.55 1014.06 1014.35 1014.67 1014.73 1014.78 1015.05 1014.82 1014.31 1014.46 1015.09 1015.83 1016.46 1016.82 1017.26 1017.71 1018.20 1018.50 1018.50 1018.68 1018.78 1018.94 1019.18 1019.31 1019.20 1019.29 1019.34 1019.55 1019.70 1019.71 1019.66 1019.69 1019.67 1019.27 1019.00 1018.57 1018.29 1018.05
1012.81 1012.83 1012.83 1013.03 1013.22 1013.47 1014.09 1014.36 1014.71 1015.06 1015.54 1015.94 1015.74 1015.97 1014.88 1014.80 1015.38 1016.01 1016.45 1016.74 1017.02 1017.51 1017.67 1017.90 1018.32 1018.76 1018.90 1019.06 1018.94 1019.16 1019.20 1019.21 1019.23 1019.46 1019.62 1019.88 1020.03 1020.10 1019.67 1019.19 1018.74 1018.39 1017.94 1017.63
1013.19 1013.15 1013.19 1013.40 1013.57 1013.61 1014.36 1014.70 1015.23 1015.74 1016.46 1016.85 1016.26 1016.84 1015.17 1015.20 1015.83 1016.09 1016.28 1016.53 1016.76 1016.97 1017.20 1017.65 1018.00 1018.30 1018.43 1018.54 1018.84 1018.91 1018.98 1019.05 1019.11 1019.26 1019.35 1019.67 1019.85 1019.65 1019.18 1018.94 1018.65 1018.33 1017.90 1017.50
1013.62 1013.43 1013.51 1013.79 1013.96 1014.19 1014.67 1015.18 1015.82 1016.44 1017.29 1017.65 1016.09 1016.40 1015.40 1015.15 1014.81 1015.35 1015.76 1016.07 1016.42 1016.83 1017.07 1017.15 1017.45 1017.76 1018.05 1018.37 1018.67 1018.73 1018.79 1018.92 1018.94 1019.09 1019.10 1019.21 1019.39 1019.30 1019.16 1018.93 1018.73 1018.27 1017.85 1017.50
1014.15 1014.17 1014.15 1014.16 1014.49 1014.81 1015.24 1016.18 1017.21 1018.01 1018.48 1017.65 1015.99 1016.04 1014.65 1014.24 1014.10 1014.26 1014.93 1015.54 1015.92 1016.41 1016.85 1017.39 1017.64 1017.88 1018.14 1018.32 1018.49 1018.60 1018.68 1018.84 1018.81 1018.80 1018.76 1018.76 1018.85 1018.89 1018.95 1018.75 1018.47 1018.13 1017.70 1017.25
1015.24 1015.35 1015.01 1014.87 1015.08 1015.43 1015.83 1016.51 1017.51 1018.10 1018.30 1017.53 1016.19 1015.57 1014.86 1014.56 1014.18 1014.21 1014.27 1015.00 1015.93 1016.57 1016.90 1017.36 1017.43 1017.56 1017.85 1017.96 1018.14 1018.29 1018.55 1018.70 1018.53 1018.48 1018.59 1018.59 1018.53 1018.49 1018.37 1018.16 1017.94 1017.68 1017.37 1016.96
1016.16 1016.02 1015.71 1015.58 1015.62 1015.88 1016.12 1016.58 1017.12 1017.93 1017.95 1017.87 1016.47 1015.69 1015.12 1014.67 1014.47 1014.57 1015.01 1015.73 1016.40 1016.76 1016.87 1017.12 1017.17 1017.36 1017.64 1017.76 1017.90 1018.16 1018.32 1018.39 1018.37 1018.45 1018.43 1018.36 1018.26 1018.17 1018.06 1017.76 1017.50 1017.16 1016.78 1016.37
1016.88 1016.67 1016.17 1016.12 1016.11 1016.20 1016.38 1016.90 1017.53 1018.44 1019.07 1018.78 1017.32 1016.39 1015.70 1015.12 1015.06 1015.32 1015.78 1016.19 1016.42 1016.63 1016.84 1016.99 1017.07 1017.19 1017.39 1017.55 1017.76 1017.98 1018.14 1018.26 1018.31 1018.27 1018.23 1018.17 1018.14 1017.97 1017.72 1017.37 1017.03 1016.67 1016.24 1015.78
1017.27 1017.25 1017.11 1016.74 1016.59 1016.45 1016.92 1017.08 1017.68 1018.59 1019.24 1019.46 1018.79 1017.39 1015.70 1015.54 1015.47 1015.70 1015.98 1016.17 1016.18 1016.30 1016.33 1016.65 1016.76 1017.09 1017.35 1017.59 1017.86 1018.07 1018.17 1018.26 1018.28 1018.19 1018.15 1018.11 1017.96 1017.67 1017.35 1017.09 1016.72 1016.27 1015.79 1015.44
1018.10 1018.15 1017.89 1017.21 1016.81 1016.57 1016.58 1016.95 1017.60 1019.16 1019.70 1019.74 1019.27 1017.64 1016.39 1015.77 1015.61 1015.73 1016.01 1015.98 1015.93 1016.18 1016.65 1016.93 1017.16 1017.37 1017.68 1017.97 1018.11 1018.17 1018.21 1018.31 1018.31 1018.16 1018.09 1017.91 1017.63 1017.45 1017.23 1016.86 1016.39 1016.00 1015.53 1015.07
1018.89 1018.88 1018.73 1017.95 1017.66 1017.06 1016.95 1017.07 1017.52 1018.72 1019.76 1020.07 1020.08 1018.00 1016.50 1015.94 1015.82 1015.69 1015.82 1016.03 1016.34 1016.46 1016.68 1017.04 1017.37 1017.70 1018.00 1018.24 1018.16 1018.20 1018.28 1018.30 1018.21 1018.03 1017.87 1017.69 1017.50 1017.18 1016.79 1016.49 1016.08 1015.59 1014.91 1014.24
1019.31 1019.37 1019.24 1018.85 1018.19 1017.68 1017.49 1017.25 1017.54 1018.44 1019.78 1019.71 1019.00 1017.73 1016.95 1016.49 1016.36 1016.31 1016.40 1016.42 1016.59 1016.73 1016.94 1017.27 1017.64 1017.99 1018.14 1018.28 1018.35 1018.49 1018.60 1018.59 1018.34 1018.06 1017.90 1017.69 1017.33 1016.92 1016.60 1016.01 1015.42 1014.83 1014.18 1013.39
1019.88 1020.04 1019.64 1019.09 1018.48 1018.04 1017.65 1017.50 1017.64 1018.23 1018.53 1019.06 1018.26 1017.83 1017.01 1016.68 1016.62 1016.59 1016.62 1016.95 1017.11 1017.19 1017.25 1017.47 1017.87 1018.12 1018.34 1018.60 1018.66 1018.84 1018.80 1018.59 1018.27 1018.19 1017.91 1017.51 1017.01 1016.52 1015.97 1015.28 1014.60 1013.92 1013.16 1012.41
1020.23 1020.56 1020.49 1019.97 1018.93 1018.49 1017.98 1017.41 1017.46 1017.64 1017.91 1018.00 1017.87 1017.59 1016.94 1016.95 1016.86 1017.15 1017.39 1017.34 1017.31 1017.24 1017.37 1017.83 1018.12 1018.36 1018.63 1018.88 1019.10 1018.93 1018.68 1018.49 1018.30 1018.02 1017.65 1017.12 1016.57 1015.96 1015.29 1014.50 1013.76 1012.95 1012.19 1011.56
1020.91 1021.54 1021.95 1021.48 1020.47 1019.48 1018.52 1017.46 1017.17 1017.21 1017.36 1017.60 1017.91 1017.79 1017.56 1017.68 1017.65 1017.64 1017.60 1017.47 1017.44 1017.59 1017.97 1018.24 1018.53 1018.78 1018.97 1019.08 1018.93 1018.76 1018.44 1018.23 1017.91 1017.51 1017.06 1016.58 1016.05 1015.34 1014.57 1013.69 1012.93 1012.10 1011.23 1010.56
1021.35 1022.09 1022.78 1023.19 1022.12 1020.91 1018.88 1017.76 1017.39 1017.45 1018.05 1018.05 1018.27 1018.39 1018.37 1018.33 1018.09 1017.84 1017.86 1017.92 1017.94 1017.95 1018.20 1018.52 1018.64 1018.78 1018.93 1018.88 1018.74 1018.60 1018.39 1018.07 1017.72 1017.27 1016.76 1016.24 1015.49 1014.75 1013.91 1013.03 1012.08 1011.18 1010.45 1009.69
1021.75 1022.73 1023.93 1024.33 1023.76 1021.63 1019.12 1018.52 1018.14 1018.07 1018.67 1018.68 1018.68 1018.69 1018.58 1018.38 1018.15 1018.19 1017.95 1017.84 1017.69 1017.83 1018.06 1018.25 1018.57 1018.73 1018.78 1018.76 1018.61 1018.39 1018.07 1017.75 1017.48 1017.09 1016.54 1015.76 1014.90 1014.01 1013.22 1012.21 1011.23 1010.32 1009.47 1008.62
1022.40 1023.22 1024.28 1024.92 1024.85 1022.85 1019.77 1018.73 1018.43 1018.59 1018.87 1018.69 1018.70 1018.83 1018.92 1018.85 1018.97 1018.62 1018.04 1017.85 1017.61 1017.66 1017.86 1018.20 1018.49 1018.64 1018.76 1018.62 1018.38 1018.12 1017.87 1017.74 1017.31 1016.71 1015.97 1015.16 1014.26 1013.47 1012.39 1011.36 1010.34 1009.42 1008.53 1007.35
1023.09 1023.96 1024.58 1024.76 1024.16 1021.90 1019.71 1018.82 1018.58 1019.31 1019.82 1019.09 1019.04 1019.15 1019.27 1019.51 1019.20 1018.31 1017.95 1017.58 1017.51 1017.79 1018.00 1018.20 1018.39 1018.75 1018.76 1018.46 1018.21 1018.17 1018.01 1017.66 1016.93 1016.15 1015.34 1014.43 1013.53 1012.69 1011.62 1010.48 1009.48 1008.49 1007.47 1006.38
1022.21 1023.33 1023.79 1023.98 1023.41 1021.06 1019.20 1018.93 1019.23 1019.83 1019.36 1019.15 1019.07 1019.02 1018.97 1018.91 1018.54 1018.15 1017.80 1017.53 1017.63 1017.89 1017.97 1018.12 1018.51 1018.76 1018.56 1018.41 1018.30 1018.27 1017.96 1017.24 1016.46 1015.65 1014.74 1013.81 1012.90 1011.93 1010.82 1009.81 1008.68 1007.77 1006.75 1005.57
1021.15 1020.72 1021.10 1021.67 1020.88 1019.46 1018.84 1019.09 1019.08 1019.19 1019.22 1019.11 1019.06 1018.86 1018.69 1018.62 1018.24 1017.96 1017.72 1017.64 1017.80 1018.01 1018.18 1018.28 1018.56 1018.67 1018.49 1018.45 1018.31 1018.11 1017.38 1016.69 1015.99 1015.23 1014.31 1013.32 1012.27 1011.27 1010.23 1009.29 1008.26 1007.13 1006.15 1004.98
1019.88 1019.59 1020.10 1020.14 1019.31 1019.09 1019.13 1018.90 1018.90 1018.96 1018.98 1018.84 1018.69 1018.63 1018.51 1018.42 1018.10 1017.85 1017.73 1017.82 1017.98 1018.08 1018.23 1018.44 1018.58 1018.60 1018.58 1018.37 1018.10 1017.67 1016.97 1016.42 1015.73 1014.81 1013.85 1012.84 1011.84 1010.69 1009.85 1008.87 1007.87 1006.87 1005.74 1004.46
1019.73 1019.42 1019.37 1019.49 1019.15 1018.87 1018.78 1018.80 1018.92 1018.93 1018.77 1018.63 1018.53 1018.48 1018.34 1018.12 1017.94 1017.76 1017.78 1017.93 1018.10 1018.28 1018.50 1018.53 1018.65 1018.62 1018.49 1018.19 1017.87 1017.39 1016.89 1016.25 1015.45 1014.58 1013.57 1012.59 1011.69 1010.67 1009.55 1008.56 1007.59 1006.49 1005.26 1003.90
1018.77 1018.28 1018.87 1018.99 1019.07 1019.13 1019.31 1019.22 1018.98 1019.04 1019.10 1018.96 1018.67 1018.32 1018.21 1017.92 1017.71 1017.53 1017.86 1018.00 1018.18 1018.37 1018.51 1018.60 1018.56 1018.39 1018.20 1017.97 1017.66 1017.23 1016.66 1016.03 1015.31 1014.34 1013.40 1012.53 1011.51 1010.49 1009.50 1008.38 1007.20 1006.20 1004.75 1003.75
Wind_Speed
2 5 4 5 6 5 2 1 4 2 3 5 8 8 10 12 7 9 9 10 9 10 8 8 7 7 5 3 5 6 6 2 2 1 1 1 3 3 3 5 7 7 6 7
5 2 3 3 3 3 3 3 6 3 2 1 6 13 11 15 15 14 10 9 10 7 8 7 8 7 5 5 4 4 4 2 0 1 1 0 1 3 3 4 5 6 7 7
6 1 2 1 1 2 3 1 3 2 2 4 3 9 6 2 5 7 6 7 7 13 11 9 9 9 6 5 5 5 3 1 2 4 2 3 3 3 3 3 4 4 7 7
2 2 2 1 2 1 2 1 2 4 5 3 3 7 7 4 5 8 8 7 8 9 7 7 6 6 7 4 3 4 3 3 3 3 2 3 2 3 4 3 3 5 7 7
5 3 2 2 1 2 4 1 1 1 1 4 4 2 8 7 4 8 9 9 8 9 10 10 10 9 7 6 6 3 2 3 4 4 4 2 4 4 3 4 7 6 6 7
4 2 2 2 2 3 3 2 3 2 3 2 7 8 6 5 7 6 6 9 10 8 8 7 7 7 4 4 4 3 1 4 5 5 6 5 6 7 5 4 4 5 4 4
3 2 2 2 1 2 3 5 4 3 2 7 4 5 8 2 3 5 13 11 10 9 8 8 8 6 5 6 4 3 4 6 6 6 6 6 6 5 5 5 4 6 4 4
4 2 2 1 1 3 4 6 5 4 3 4 6 5 3 2 5 7 7 9 8 7 7 8 8 6 7 6 5 4 4 5 6 6 6 5 5 3 4 4 5 4 4 5
3 2 1 4 2 2 1 2 4 1 2 2 4 1 3 4 4 6 8 8 7 7 7 8 7 7 7 5 6 5 5 5 5 5 4 5 5 6 5 7 6 5 6 7
1 0 2 1 2 1 2 2 3 3 2 4 5 1 2 4 4 3 6 7 7 6 7 7 7 7 5 5 4 3 2 3 3 5 4 4 6 6 7 6 7 7 7 9
2 3 2 2 4 5 1 2 2 3 6 5 1 7 5 1 1 4 2 5 8 9 9 8 8 3 3 1 3 3 4 4 6 6 5 6 6 7 7 6 7 9 8 6
0 4 3 5 1 1 1 3 5 6 5 1 5 7 2 8 7 7 5 4 3 5 2 7 3 3 3 3 3 4 5 5 5 5 5 7 7 6 6 6 9 7 11 11
2 1 3 4 4 2 1 3 3 5 4 4 5 7 3 4 4 1 1 5 6 4 4 2 3 2 2 2 4 5 5 6 6 6 7 7 6 7 9 6 9 14 15 15
2 1 5 6 4 3 2 3 1 5 4 3 7 4 7 5 3 4 2 2 2 2 1 1 0 2 3 4 6 6 7 6 7 7 7 7 7 7 6 11 12 15 15 16
3 2 2 4 6 4 5 8 7 8 7 5 4 8 7 5 2 1 1 5 4 5 6 1 1 3 5 6 7 6 6 7 6 7 7 7 6 9 14 14 14 15 16 17
1 2 3 5 4 3 5 9 8 6 6 8 7 9 2 2 3 7 6 5 6 7 2 3 4 6 6 7 6 6 6 6 5 6 10 8 10 14 15 14 16 18 17 18
4 2 3 5 6 6 6 4 2 4 3 2 2 5 4 6 7 5 7 7 8 4 4 5 5 5 5 5 6 7 6 5 6 7 9 10 12 16 15 16 18 19 18 18
2 3 3 3 5 2 4 4 6 3 7 7 6 7 5 3 4 4 3 2 1 2 3 4 3 3 4 5 6 6 6 7 7 8 9 9 14 16 17 19 19 19 17 18
2 3 1 3 2 8 1 4 3 3 2 3 3 6 5 7 4 5 2 3 5 2 2 2 0 2 4 6 7 6 7 7 7 8 10 14 15 17 19 19 20 18 17 17
4 5 5 2 4 6 4 2 1 3 4 2 2 4 5 6 8 5 6 7 6 5 2 2 3 3 5 6 6 7 7 6 7 10 13 15 17 18 19 20 19 17 18 19
2 2 5 2 3 8 6 3 0 4 7 6 4 4 4 3 6 7 8 7 3 2 3 3 4 4 6 7 6 6 6 8 10 12 14 16 18 18 19 18 18 17 17 17
7 7 5 2 1 7 5 1 1 5 4 3 4 4 6 8 9 8 8 7 2 3 3 4 4 5 6 6 6 6 7 9 11 13 15 17 18 16 15 18 16 17 16 16
1 8 6 10 8 5 3 7 1 2 3 5 5 7 8 8 8 7 7 2 2 3 2 2 3 5 6 6 5 7 10 10 11 14 17 17 18 17 16 16 17 14 14 13
4 2 2 4 3 4 5 3 2 1 3 6 5 6 6 8 8 8 5 0 2 3 4 3 5 6 6 6 7 8 10 9 12 15 17 16 17 19 16 13 11 11 11 12
6 2 3 4 3 2 4 4 4 7 8 9 8 5 7 7 7 7 1 2 3 3 3 4 4 4 6 7 8 8 7 10 13 15 16 15 13 14 14 12 11 11 12 13
6 7 5 6 5 5 4 5 3 6 6 8 7 7 7 6 7 2 2 3 3 2 3 3 4 5 6 7 7 6 8 11 13 14 13 13 12 12 11 11 12 20 19 21
Wind_Direction
284 73 205 233 213 205 185 239 274 231 240 160 226 248 219 205 187 191 196 180 178 178 178 156 150 156 192 115 111 108 94 58 75 25 31 349 326 332 330 334 331 325 330 326
30 227 215 118 66 47 17 339 294 27 112 128 257 257 248 188 198 191 184 177 185 150 161 167 170 182 188 181 155 127 112 86 24 43 355 60 314 284 267 290 305 305 304 307
156 213 137 81 40 355 14 31 315 232 294 280 313 299 301 185 136 163 193 186 180 164 172 185 190 198 189 204 178 177 164 82 36 45 19 345 344 340 335 306 285 278 298 298
172 153 104 133 242 296 259 13 35 3 45 245 55 282 308 167 151 174 194 186 185 168 181 188 178 183 195 196 135 118 75 25 23 15 355 336 267 284 254 252 260 289 285 288
249 149 151 192 245 5 185 63 12 344 326 2 289 155 274 91 176 205 207 202 205 187 175 155 171 167 165 147 139 138 71 1 325 303 318 295 280 255 271 291 302 300 297 301
214 172 84 130 93 72 157 342 358 52 78 357 238 161 276 206 201 200 201 200 194 180 181 183 160 147 144 112 124 123 61 283 290 292 291 280 283 292 306 303 305 299 294 291
158 180 70 90 97 15 79 60 349 354 5 229 321 116 249 202 65 201 192 194 190 182 174 169 157 162 161 159 186 219 238 268 278 280 292 295 296 303 296 295 287 301 292 289
155 309 13 49 111 172 192 154 155 234 214 262 326 244 281 10 25 14 179 176 165 171 165 173 179 173 180 194 212 232 263 269 279 300 307 310 310 296 289 285 293 285 276 279
36 320 336 60 0 106 276 179 175 160 271 94 237 109 334 43 28 56 77 91 132 162 173 183 189 183 200 220 232 231 247 280 314 310 305 307 306 312 299 295 286 277 272 283
182 326 210 225 28 288 160 247 60 11 255 283 309 29 252 259 216 114 109 142 176 186 187 195 202 202 212 215 222 270 339 319 294 312 318 317 311 306 295 288 280 277 277 284
329 102 279 64 198 192 107 285 206 139 155 180 262 278 294 129 277 176 213 235 214 201 201 207 212 210 194 248 16 13 350 336 338 342 332 329 307 292 288 290 287 292 308 312
302 145 234 234 192 91 190 196 148 124 276 237 144 271 335 121 111 127 153 162 147 180 231 249 200 197 14 24 9 356 348 356 339 334 323 306 302 318 316 303 306 311 313 306
336 293 9 339 354 342 150 240 195 127 86 224 122 261 231 99 89 272 203 12 11 347 19 129 65 56 30 355 356 359 358 349 338 324 319 317 312 303 302 308 311 310 303 295
61 248 164 191 193 196 268 232 228 136 121 213 223 258 288 354 102 46 76 160 133 76 308 230 348 48 351 357 6 3 351 339 318 311 307 304 297 305 303 305 301 299 294 293
111 214 329 270 266 237 245 255 248 215 218 218 234 272 269 252 144 158 112 46 14 310 289 310 76 355 359 7 4 350 333 320 315 325 314 300 302 307 307 298 294 299 297 299
46 265 16 297 338 23 274 271 261 243 254 262 264 278 330 33 27 20 5 343 313 298 294 61 13 15 13 6 338 326 310 318 331 315 313 295 306 308 300 298 301 304 297 297
140 111 60 275 351 340 326 260 178 206 178 222 280 258 346 22 32 354 328 324 311 2 36 13 18 18 358 334 315 307 305 303 306 294 298 296 303 306 302 303 306 302 296 295
113 113 114 252 13 1 237 19 65 90 38 24 47 25 24 355 314 344 79 80 2 281 346 18 18 347 324 315 315 309 310 304 297 294 300 308 310 309 309 306 302 301 298 293
76 100 93 125 193 292 48 351 27 69 110 34 47 352 344 335 332 335 281 270 257 299 144 180 213 319 321 323 308 309 305 298 305 304 312 312 309 312 309 304 301 298 295 291
64 79 116 92 136 224 253 216 26 91 289 231 69 358 335 0 339 262 285 303 262 183 182 56 2 350 331 307 302 307 308 319 306 312 311 311 315 311 305 301 301 297 294 289
91 34 166 206 225 284 252 212 175 88 253 351 17 333 316 274 222 259 286 293 218 183 80 59 23 339 304 304 320 323 324 319 310 313 309 310 313 310 304 302 300 299 297 298
165 144 207 128 105 281 206 240 353 221 268 270 283 264 271 268 276 278 286 283 164 83 49 34 16 331 315 320 344 331 320 309 308 307 310 312 313 309 306 306 305 307 304 301
220 186 186 171 210 220 210 111 118 219 246 279 277 272 266 277 288 292 280 309 105 82 64 28 1 335 327 342 337 318 306 302 307 319 317 314 313 311 311 313 309 309 307 302
301 122 201 65 257 142 122 172 145 261 286 288 280 302 304 302 295 293 293 68 53 46 33 16 355 338 329 324 314 290 302 304 315 319 318 316 316 316 317 312 309 307 304 303
214 56 208 259 312 72 6 21 331 358 347 336 319 296 296 299 305 276 218 89 69 53 16 347 344 334 320 312 306 302 309 324 325 321 319 319 316 317 316 314 312 309 303 311
193 210 164 229 195 167 241 294 342 350 321 308 307 316 305 290 304 237 87 93 91 23 325 347 332 327 311 309 303 315 326 331 324 322 323 317 320 319 317 317 316 314 332 350